Regional Weather Roundup
Issued by NWS

Home | Current Version | Previous Version | Graphics & Text | Print | Product List | Glossary On
Versions: 1 2 3 4 5 6 7 8 9 10 11 12 13 14 15 16 17 18 19 20 21 22 23 24 25 26 27 28 29 30 31 32 33 34 35 36 37 38 39 40 41 42 43 44 45 46 47 48 49 50
000
ASUS43 KMPX 240401
RWRMN
WEATHER ROUNDUP FOR MINNESOTA
NATIONAL WEATHER SERVICE TWIN CITIES/CHANHASSEN MN
1000 PM CST SUN NOV 23 2014


NOTE: "FAIR" INDICATES FEW OR NO CLOUDS BELOW 12,000 FEET WITH NO
SIGNIFICANT WEATHER AND/OR OBSTRUCTIONS TO VISIBILITY. N/A MEANS
CURRENT SKY AND/OR WEATHER CONDITIONS ARE NOT AVAILABLE.

MNZ060>063-068>070-240500-
   Twin Cities Metro

CITY           SKY/WX    TMP DP  RH WIND       PRES   REMARKS
TWIN CITIES    LGT RAIN  35  33  92 NW15      29.35F WCI  25
ST PAUL        CLOUDY    37  35  92 NW15      29.35F
CRYSTAL        MIX PCPN  36  32  85 NW18G26   29.35F
LAKEVILLE      LGT RAIN  34  32  93 NW16      29.34F WCI  23
EDEN PRAIRIE   FLURRIES  35  30  82 NW16G25   29.34F WCI  25
SOUTH ST PAUL  CLOUDY    38  36  91 NW12G21   29.33F
LAKE ELMO      LGT RAIN  37  36  93 NW10      29.33F
$$
MNZ001>005-007-008-013>017-022>024-027-028-240500-
   Northwest Minnesota

CITY           SKY/WX    TMP DP  RH WIND       PRES   REMARKS
BEMIDJI        CLOUDY    22  20  95 W18       29.44S WCI   7
HALLOCK        FLURRIES  16  12  86 N20G29    29.58R WCI  -1
ROSEAU         CLOUDY    21  18  86 NW13      29.49R WCI   9
WARROAD        MIX PCPN  21  18  86 NW15      29.46S WCI   8
THIEF RVR FALL CLOUDY    18  16  93 NW22      29.51S WCI   0
CROOKSTON      FLURRIES  18  16  93 N21       29.57S WCI   1
FOSSTON        CLOUDY    18  16  93 NW15G21   29.51R FOG     WCI   3
DETROIT LAKES  CLOUDY    21  19  93 NW18G25   29.51R WCI   6
MOORHEAD       LGT SNOW  19  19 100 NW20G25   29.57S WCI   4
PARK RAPIDS    CLOUDY    26  23  88 NW20      29.42R WCI  12
MAHNOMEN       CLOUDY    19  17  93 NW15      29.51R WCI   5
$$
MNZ006-009>011-018-025>026-240500-
   North Central Minnesota

CITY           SKY/WX    TMP DP  RH WIND       PRES   REMARKS
BAUDETTE       CLOUDY    28  27  96 NW12      29.41S FOG     WCI  18
FLAG ISLAND    CLOUDY    27  27 100 NW17      29.42S WCI  14
INTL FALLS     CLOUDY    34  32  92 NW6       29.37F FOG     WCI  29
WASKISH        MIX PCPN  27  27 100 W3G16     29.42F
BIG FORK       DRIZZLE   36  32  87 NW3       29.37S
LONGVILLE      CLOUDY    30  28  93 NW10      29.38S WCI  21
GRAND RAPIDS   CLOUDY    36  32  87 NW10G17   29.35F
CRANE LAKE     LGT RAIN  32  32 100 NW3       29.37F
ORR            FOG       34  30  86 CALM      29.33F VSB 3/4
COOK           LGT SNOW  34  32  93 CALM      29.35F
WALKER         CLOUDY    28  26  93 W9G18     29.40S WCI  19
$$
MNZ012-019>021-037-240500-
   Northeast Minnesota

CITY           SKY/WX    TMP DP  RH WIND       PRES   REMARKS
DULUTH         LGT SNOW  35  33  92 NW9       29.30F FOG     WCI  28
ELY            LGT RAIN  34  34 100 CALM      29.33F VSB 1
HIBBING        LGT RAIN  34  32  92 NW6       29.34S FOG     WCI  29
EVELETH        LGT RAIN  34  34 100 CALM      29.34F
DULUTH HARBOR  DRIZZLE   37  36  93 CALM      29.33F
TWO HARBORS    DRIZZLE   37  34  87 CALM      29.29F
SILVER BAY     DRIZZLE   36  36 100 CALM      29.29F
GRAND MARAIS     N/A     41  36  82 N10G20    29.28F
G MARAIS ARPRT CLOUDY    34  30  86 N8        29.28F FOG     WCI  27
$$
MNZ029>031-032-039>041-046>048-054>057-064-240500-
   West Central Minnesota

CITY           SKY/WX    TMP DP  RH WIND       PRES   REMARKS
FERGUS FALLS   CLOUDY    23  21  93 N18G28    29.54R WCI   9
WHEATON        CLOUDY    21  18  86 NW23G30   29.56R WCI   5
MORRIS           N/A     27  25  93 NW25G31   29.48F FOG     WCI  11
ALEXANDRIA     CLOUDY    27  23  85 NW17      29.44F WCI  14
ELBOW LAKE       N/A     24  23  93 NW21      29.48S FOG     WCI  10
WADENA         CLOUDY    27  25  93 NW15      29.43S WCI  15
GLENWOOD       PTCLDY    27  25  93 W16       29.45F WCI  14
APPLETON       CLOUDY    27  21  80 NW23G32   29.51F WCI  12
BENSON         CLOUDY    27  23  86 N18G25    29.48F WCI  13
ORTONVILLE     CLOUDY    23  18  80 NW15G31   29.53S WCI  10
MADISON        PTCLDY    28  25  86 NW26G35   29.52F WCI  13
WILLMAR        CLOUDY    28  25  86 NW23      29.46F WCI  14
$$
MNZ033>034-036-042>043-049>051-058-059-240500-
   Central Minnesota

CITY           SKY/WX    TMP DP  RH WIND       PRES   REMARKS
ST CLOUD       CLOUDY    34  26  72 NW17      29.38F WCI  23
SAUK CENTRE    CLOUDY    29  24  82 NW17      29.42F WCI  16
PAYNESVILLE    CLOUDY    27  23  84 W20       29.43S WCI  14
AITKIN         CLOUDY    39  34  81 NW6       29.35S
PINE RIVER     CLOUDY    32  28  86 NW7       29.43S WCI  26
BRAINERD       CLOUDY    32  27  81 NW13      29.39S WCI  22
STAPLES        CLOUDY    28  27  93 W13G18    29.41F WCI  18
LONG PRAIRIE   CLOUDY    30  25  80 W13G20    29.42F WCI  20
LITTLE FALLS   CLOUDY    32  27  80 NW12G20   29.40F WCI  23
LITCHFIELD     CLOUDY    30  28  93 NW14G22   29.43S WCI  20
BUFFALO        CLOUDY    34  28  77 NW15G22   29.38F WCI  24
MAPLE LAKE     CLOUDY    34  29  83 NW14G22   29.40S WCI  24
$$
MNZ037-044-045-052-053-240500-
   East Central Minnesota

CITY           SKY/WX    TMP DP  RH WIND       PRES   REMARKS
PRINCETON      CLOUDY    36  30  80 W16G23    29.36F
MORA           CLOUDY    34  32  93 NW7       29.36F WCI  28
CAMBRIDGE      HVY RAIN  37  30  75 W12       29.33F
RUSH CITY      LGT RAIN  36  35  96 NW5       29.34S
MOOSE LAKE     LGT RAIN  36  34  93 CALM      29.32F
HINCKLEY       DRIZZLE   36  36 100 NW8       29.33F
CLOQUET        LGT RAIN  36  34  93 NW9       29.32F
MCGREGOR       CLOUDY    36  34  93 NW5       29.35F
$$
MNZ071>073-080-081-089-090-097-098-240500-
   Southwest Minnesota

CITY           SKY/WX    TMP DP  RH WIND       PRES   REMARKS
MONTEVIDEO     CLOUDY    27  23  86 N20G25    29.50F WCI  13
GRANITE FALLS  CLOUDY    27  23  84 W23G29    29.51S WCI  13
CANBY          CLOUDY    27  22  84 NW20G25   29.53F WCI  13
MARSHALL       CLOUDY    27  18  69 NW28G35   29.50S WCI  11
REDWOOD FALLS  CLOUDY    30  22  72 NW20G30   29.46F WCI  17
OLIVIA         CLOUDY    30  27  86 NW22G32   29.45F WCI  17
PIPESTONE      CLOUDY    27  19  74 N25G33    29.50S WCI  11
WINDOM         CLOUDY    30  25  80 NW23G29   29.45S WCI  17
WORTHINGTON    CLOUDY    28  23  80 NW22G28   29.47S WCI  15
JACKSON        CLOUDY    32  27  80 NW23G35   29.44F WCI  19
TRACY          CLOUDY    29  24  79 NW22G31   29.48F WCI  16
SLAYTON        CLOUDY    27  24  85 NW26      29.47S WCI  12
$$
MNZ065>067-074>077-082>085-091>093-240500-
   South Central Minnesota

CITY           SKY/WX    TMP DP  RH WIND       PRES   REMARKS
MANKATO        CLOUDY    34  25  69 NW20G28   29.40R WCI  22
NEW ULM        CLOUDY    30  27  86 NW20G32   29.43S WCI  18
ST JAMES       CLOUDY    34  27  75 NW29G37   29.44S WCI  20
FAIRMONT       CLOUDY    32  21  64 NW25G32   29.41F WCI  19
GLENCOE        CLOUDY    34  30  86 W18G24    29.40S WCI  23
FARIBAULT      LGT RAIN  36  32  87 W13G22    29.36S
OWATONNA       LGT RAIN  34  32  93 NW15      29.35F WCI  24
WASECA         CLOUDY    32  28  86 NW23G32   29.38F WCI  19
ALBERT LEA     LGT SNOW  36  32  87 NW18      29.34F
$$
MNZ078>079-086>088-094>096-240500-
   Southeast Minnesota

CITY           SKY/WX    TMP DP  RH WIND       PRES   REMARKS
ROCHESTER      LGT RAIN  37  35  92 NW20      29.30F
RED WING         N/A     39  37  93 NW6       29.31F
STANTON        LGT RAIN  37  34  88 NW14G22   29.33S
DODGE CENTER   LGT RAIN  36  36 100 NW16      29.31F
WINONA         CLOUDY    41  37  87 NW15      29.27S FOG
AUSTIN         MIX PCPN  36  34  93 NW17G24   29.31F
PRESTON        CLOUDY    37  36  98 NW16G22   29.27F FOG
$$
ABBREVIATIONS USED IN REMARKS
   TC - TEMPERATURES IN CELSIUS
  WCI - WIND CHILL INDEX
   HX - HEAT INDEX
  VSB - VISIBILITY
$$


USA.gov is the U.S. government's official web portal to all federal, state and local government web resources and services.